Overview Statistics Trail Chart Weather Telemetry Raw packets
 

This is the latest recevied weather packets stored in our database for station/object EA4URC-10. If no packets are shown the sender has not sent any weather packets the latest 10 day(s).

<< 6 7 8 9 10 11 12 >>
Time Temp. Humidity Pressure Rain* Wind** Luminosity Snow
1788277192 29.44° C 25% 1036.7 hPa - - - -
1788275391 31.11° C 23% 1036.7 hPa - - - -
1788273600 31.67° C 20% 1036.6 hPa - - - -
1788271802 31.67° C 20% 1036.9 hPa - - - -
1788269996 32.22° C 21% 1037.1 hPa - - - -
1788268195 31.67° C 23% 1037.3 hPa - - - -
1788266395 31.11° C 23% 1037.2 hPa - - - -
1788264594 31.11° C 26% 1037.5 hPa - - - -
1788262793 30.56° C 28% 1037.7 hPa - - - -
1788260996 30.56° C 29% 1037.7 hPa - - - -
1788259192 29.44° C 33% 1037.9 hPa - - - -
1788257392 27.78° C 39% 1038 hPa - - - -
1788255591 26.11° C 45% 1038.1 hPa - - - -
1788253790 25° C 47% 1037.9 hPa - - - -
1788251999 23.89° C 52% 1037.6 hPa - - - -
1788250201 21.11° C 69% 1037.2 hPa - - - -
1788248398 21.11° C 75% 1037.1 hPa - - - -
1788246598 17.78° C 100% 1037.1 hPa - - - -
1788244794 15.56° C 100% 1036.8 hPa - - - -
1788243345 14.44° C 100% 1036.5 hPa - - - -
1788243002 14.44° C 100% 1036.5 hPa - - - -
1788241193 14.44° C 100% 1036.5 hPa - - - -
1788239392 14.44° C 100% 1036.4 hPa - - - -
1788237592 14.44° C 100% 1036.3 hPa - - - -
1788235841 15° C 100% 1036.1 hPa - - - -

* Rain since midnight (hover to see other rain measurements)
** Current wind speed in m/s (hover to see current wind gust speed)